Regional Weather Roundup
Issued by NWS

Home | Current Version | Previous Version | Graphics & Text | Print | Product List | Glossary On
Versions: 1 2 3 4 5 6 7 8 9 10 11 12 13 14 15 16 17 18 19 20 21 22 23 24 25 26 27 28 29 30 31 32 33 34 35 36 37 38 39 40 41 42 43 44 45 46 47 48 49 50
000
ASUS43 KDTX 240910
RWRMI
MICHIGAN HOURLY REGIONAL WEATHER ROUNDUP
NATIONAL WEATHER SERVICE DETROIT/PONTIAC MI
ISSUED BY NATIONAL WEATHER SERVICE GRAND RAPIDS MI
500 AM EDT SAT JUN 24 2017

NOTE: "FAIR" INDICATES FEW OR NO CLOUDS BELOW 12,000 FEET WITH NO
SIGNIFICANT WEATHER AND/OR OBSTRUCTION TO VISIBILITY.

MIZ047>049-052>055-059>063-066>070-074>076-081>083-241000-
SOUTHEAST LOWER MICHIGAN

CITY           SKY/WX    TMP DP  RH WIND       PRES   REMARKS
ADRIAN         PTCLDY    61  54  77 NW7       29.80R
ALMA           PTCLDY    58  55  89 W7        29.78R
ANN ARBOR      PTCLDY    61  55  81 W8        29.77R
BAD AXE        CLOUDY    56  54  92 CALM      29.74R
DETROIT CITY   PTCLDY    64  54  69 W7        29.75R
DETROIT        PTCLDY    64  55  72 W7        29.77R
FLINT          PTCLDY    60  55  83 W6        29.76R
GROSSE ILE     PTCLDY    62  56  79 W6        29.76R
HILLSDALE      CLEAR     59  54  82 W8        29.82R
HOWELL         PTCLDY    59  53  81 W5        29.78R

CITY           SKY/WX    TMP DP  RH WIND       PRES   REMARKS
JACKSON        CLEAR     60  54  80 W7        29.80R
LANSING        MOCLDY    63  54  72 W10       29.79R
MASON          CLEAR     61  55  82 W5        29.79R
MONROE         CLEAR     60  55  83 W6        29.77R
MT. CLEMENS    MOCLDY    64  54  68 W7        29.73R
PONTIAC        CLEAR     63  56  78 W7        29.75R
PORT HOPE        N/A     59  52  77 W5        29.71R
PORT HURON     PTCLDY    61  52  72 W3        29.74R
TRI CITIES     PTCLDY    60  57  89 W7        29.76R
YPSILANTI      MOCLDY    65  56  72 W12       29.77R
$$
MIZ043>046-050>051-056>058-064>065-071>073-077>080-241000-
SOUTHWEST LOWER MICHIGAN

CITY           SKY/WX    TMP DP  RH WIND       PRES   REMARKS
BATTLE CREEK   CLEAR     60  55  83 W9        29.83R
BENTON HARBOR  CLEAR     65  56  72 W10G20    29.85R
BIG RAPIDS     CLEAR     57  52  85 W5        29.78R
COLDWATER      PTCLDY    60  55  85 W7        29.83R
HOLLAND        CLEAR     64  56  75 W9        29.83R
GRAND RAPIDS   CLOUDY    62  57  83 W9        29.81R
KALAMAZOO      CLEAR     61  54  77 W7        29.84R
MARSHALL       CLEAR     60  56  89 W6        29.81R
MOUNT PLEASANT MOCLDY    58  54  85 W5        29.77R
MUSKEGON       CLEAR     63  56  78 W9        29.81R
STURGIS        CLEAR     61  55  83 W5        29.84R
$$
MIZ016>042-241000-
NORTHERN LOWER MICHIGAN

CITY           SKY/WX    TMP DP  RH WIND       PRES   REMARKS
ALPENA         CLEAR     55  51  86 VRB3      29.72R
BEAVER ISLAND  CLEAR     49  48  98 CALM      29.74R FOG
BELLAIRE       CLEAR     51  49  95 CALM      29.75R
CADILLAC       CLEAR     49  49  97 CALM      29.78R
CHARLEVOIX     CLEAR     55  54  95 SW3       29.77R
GAYLORD        MOCLDY    54  48  80 W3        29.75R
HOUGHTON LAKE  CLEAR     54  51  90 CALM      29.77R
MANISTEE       CLEAR     53  52  96 SW3       29.78R
OSCODA         CLEAR     53  51  94 SW6       29.72R
PELLSTON       CLEAR     49  46  90 NW3       29.73R
TRAVERSE CITY  PTCLDY    57  53  86 SW5       29.74R
LUDINGTON      MOCLDY    60  55  85 NW6       29.79R
$$
MIZ007>008-015-241000-
EASTERN UPPER MICHIGAN

CITY           SKY/WX    TMP DP  RH WIND       PRES   REMARKS
KINROSS        CLEAR     46  46 100 SW6       29.71R
MACKINAC ISLAN CLEAR     52  52 100 W7        29.72R
NEWBERRY       CLEAR     47  46  97 W6        29.71S
S. S. MARIE    CLEAR     50  47  89 W9        29.69R
$$
MIZ004>006-011>014-085-241000-
CENTRAL UPPER MICHIGAN

CITY           SKY/WX    TMP DP  RH WIND       PRES   REMARKS
MANISTIQUE     CLEAR     46  43  90 NW3       29.74R
ESCANABA       PTCLDY    54  49  83 W7        29.76R
MENOMINEE      CLEAR     55  51  86 CALM      29.79R
SAWYER-GWINN   CLEAR     48  46  93 CALM      29.77R
$$
MIZ001>003-009>011-084-241000-
WESTERN UPPER MICHIGAN

CITY           SKY/WX    TMP DP  RH WIND       PRES   REMARKS
IRON MOUNTAIN  MOCLDY    52  47  83 NW3       29.78R
HOUGHTON       CLOUDY    53  48  83 W9        29.76R
COPPER HARBOR    N/A     55  49  80 N6        29.75R
IRONWOOD       CLOUDY    56  51  84 W10       29.84R
$$

ABBREVIATIONS USED IN REMARKS
   TC - TEMPERATURE IN CELSIUS
  WCI - WIND CHILL INDEX
   HX - HEAT INDEX
  VSB - VISIBILITY




USA.gov is the U.S. government's official web portal to all federal, state and local government web resources and services.